Flag for Germany Weather past 2 weeks in Menden (Sauerland), North Rhine-Westphalia, Germany

Now
43 °F

Partly sunny.


Feels Like: 38 °F
Forecast: 30 / 44 °F
Wind: 8 mph from Northwest

Location: Dortmund / Wickede

Current Time: Feb 27, 2015 at 2:36:38 PM

Latest Report: Feb 27, 2015 at 1:50 PM


Visibility: N/A

Pressure: 29.95 "Hg

Humidity: 71%

Dew point: 34 °F

Location of Menden (Sauerland)Location

Historic Weather in Menden (Sauerland) — Graph

°F

Menden (Sauerland) temperature yesterday

Maximum temperature yesterday: 48 °F (at 1:50 PM)
Minimum temperature yesterday: 36 °F (at 5:50 AM)
Average temperature yesterday: 44 °F

Past Weeks' High & Low Weather Summary

 TemperatureHumidityPressure
High54 °F (Feb 14, 1:20 PM)100% (Feb 18, 10:20 AM)30.74 "Hg (Feb 18, 10:20 AM)
Low27 °F (Feb 16, 5:50 AM)43% (Feb 13, 2:50 PM)29.33 "Hg (Feb 21, 5:20 AM)
Average39 °F76%29.96 "Hg
* Reported Feb 12 1:20 PM — Feb 27 1:20 PM, Menden (Sauerland), Weather by CustomWeather, © 2015

Note: Actual official high and low records may vary slightly from our data, if they occured in-between our weather recording intervals... More about our weather records

Advertising

Menden (Sauerland) weather history for previous 24 hours

 ConditionsComfort  
Time TempWeatherWind HumidityBarometerVisibility
1:20 PM
Fri, Feb 27
41 °FBroken clouds.10 mph76%29.95 "HgN/A
12:50 PM43 °FPartly sunny.7 mph71%29.95 "HgN/A
12:20 PM41 °FPartly sunny.8 mph81%29.95 "HgN/A
11:50 AM41 °FPartly sunny.7 mph81%29.95 "HgN/A
11:20 AM41 °FPartly sunny.7 mph81%29.92 "HgN/A
10:50 AM41 °FPartly sunny.7 mph81%29.92 "HgN/A
10:20 AM39 °FLight rain. Partly sunny.6 mph93%29.92 "HgN/A
9:50 AM39 °FLight rain. Partly sunny.6 mph87%29.89 "HgN/A
9:20 AM39 °FLight rain. Partly sunny.7 mph87%29.89 "HgN/A
8:50 AM39 °FLight rain. Partly sunny.9 mph87%29.86 "HgN/A
8:20 AM39 °FLight rain. Partly sunny.12 mph87%29.86 "HgN/A
7:50 AM39 °FLight rain. Partly sunny.12 mph87%29.83 "Hg6 mi
7:20 AM39 °FLight rain. Partly sunny.10 mph93%29.80 "Hg4 mi
6:50 AM41 °FLight rain. Passing clouds.8 mph87%29.80 "Hg5 mi
6:20 AM41 °FLight rain. Passing clouds.5 mph93%29.77 "Hg5 mi
5:50 AM41 °FLight rain. Passing clouds.5 mph93%29.77 "HgN/A
5:20 AM41 °FLight rain. Passing clouds.2 mph87%29.77 "HgN/A
10:50 PM
Thu, Feb 26
43 °FLight rain. Passing clouds.14 mph81%29.80 "HgN/A
9:50 PM45 °FPassing clouds.15 mph71%29.83 "HgN/A
9:20 PM45 °FSprinkles. Passing clouds.10 mph66%29.83 "HgN/A
8:50 PM45 °FPassing clouds.14 mph66%29.83 "HgN/A
8:20 PM45 °FPassing clouds.13 mph66%29.86 "HgN/A
7:50 PM45 °FPassing clouds.10 mph66%29.86 "HgN/A
7:20 PM45 °FPassing clouds.10 mph66%29.89 "HgN/A
6:50 PM45 °FPassing clouds.10 mph66%29.89 "HgN/A
6:20 PM45 °FPassing clouds.10 mph66%29.89 "HgN/A
5:50 PM46 °FScattered clouds.13 mph62%29.92 "HgN/A
5:20 PM46 °FPassing clouds.15 mph62%29.92 "HgN/A
4:50 PM46 °FSunny.17 mph62%29.92 "Hg10 mi
4:20 PM48 °FSunny.13 mph58%29.92 "Hg10 mi
3:50 PM48 °FSunny.14 mph58%29.95 "Hg10 mi
3:20 PM46 °FScattered clouds.15 mph62%29.95 "HgN/A
2:50 PM48 °FScattered clouds.15 mph58%29.98 "HgN/A
2:20 PM48 °FScattered clouds.15 mph62%29.98 "HgN/A
Weather by CustomWeather, © 2015

See weather overviewHow to use our weather pages